Simultaneous Nadir Overpasses (SNOs) Predictions

Prediction of SNOs between GOES-17 and METOP-C Satellite Orbit:

Table of predicted SNOs for the next 14.0 days since TLE Epoch: 9/16/2023
Index Date Time (GOES-17) GOES-17 Lat,Lon METOP-C Lat,Lon Distance(km) Time Diff (sec)
1 09/17/2023 04:33:49 -0.01,-104.69 -0.25,-105.77 123.82 80
2 09/18/2023 04:10:28 -0.01,-104.69 0.88,-100.78 445.57 80
3 09/19/2023 16:29:17 0.01,-104.70 0.17,-105.33 71.47 80
4 09/20/2023 16:11:16 0.01,-104.70 -0.97,-100.33 498.03 80
5 09/22/2023 04:30:14 -0.01,-104.68 -0.06,-104.92 28.09 80
6 09/24/2023 16:28:22 0.01,-104.68 -0.05,-104.48 22.91 80
7 09/27/2023 04:23:59 -0.01,-104.65 0.11,-104.07 66.44 80
8 09/28/2023 16:42:47 0.01,-104.66 0.91,-108.62 451.48 80
9 09/29/2023 16:24:47 0.01,-104.66 -0.25,-103.63 118.27 80
